Regional Weather Roundup
Issued by NWS

Home | Current Version | Previous Version | Text Only | Print | Product List | Glossary On
Versions: 1 2 3 4 5 6 7 8 9 10 11 12 13 14 15 16 17 18 19 20 21 22 23 24 25 26 27 28 29 30 31 32 33 34 35 36 37 38 39 40 41 42 43 44 45 46 47 48 49 50
000
ASUS44 KFWD 282015
RWRTX
NORTH TEXAS HOURLY WEATHER ROUNDUP
NATIONAL WEATHER SERVICE FORT WORTH TX
300 PM CDT WED SEP 28 2016

NOTE: "FAIR" INDICATES FEW OR NO CLOUDS BELOW 12,000 FEET WITH NO
SIGNIFICANT WEATHER AND/OR OBSTRUCTIONS TO VISIBILITY.

TXZ118-119-282100-
DALLAS/FORT WORTH METROPLEX

CITY           SKY/WX    TMP DP  RH WIND       PRES   REMARKS
DFW AIRPORT    PTSUNNY   88  50  27 S5        30.03F
DALLAS LOVE    PTSUNNY   88  49  25 W6        30.03F
FTW MEACHAM    SUNNY     87  47  24 CALM      30.03F
DAL-EXECUTIVE  SUNNY     87  48  25 VRB5      30.03F
FTW-ALLIANCE   MOSUNNY   87  53  31 SW6       30.03F
FTW-NAS-JRB    MOSUNNY   87  48  25 NE6       30.04F
FTW-SPINKS     SUNNY     88  45  22 N3        30.05F
ARLINGTON      SUNNY     88  47  24 VRB3      30.03F
GRAND PRAIRIE  SUNNY     88  46  23 W3        30.04F
ADDISON        SUNNY     84  50  30 CALM      30.04F
MESQUITE       SUNNY     86  46  25 W3        30.03F
LANCASTER      SUNNY     87  48  25 W6        30.04F
$$

TXZ091>094-102>105-117-120-121-131>134-282100-
NORTH CENTRAL TEXAS

CITY           SKY/WX    TMP DP  RH WIND       PRES   REMARKS
SHRMAN/DENISON SUNNY     90  53  29 W12       30.03F
GAINESVILLE      N/A     87  52  29 W3        30.05F
BOWIE          SUNNY     88  51  28 NW7       30.05F
BRIDGEPORT     SUNNY     86  55  34 W3        30.07F
DECATUR        SUNNY     85  52  32 SW6       30.05F
DENTON         SUNNY     87  51  28 VRB3      30.02F
MCKINNEY       SUNNY     85  52  32 SW8       30.03F
GREENVILLE     SUNNY     86  48  26 W9        30.03F
ROCKWALL       SUNNY     84  54  36 SW7       30.03F
TERRELL        SUNNY     84  52  33 VRB6      30.03F
WAXAHACHIE     SUNNY     85  53  33 W6        30.05F
CLEBURNE       SUNNY     86  45  23 CALM      30.06F
GRANBURY       SUNNY     87  48  26 CALM      30.06F
$$

TXZ083>090-098>101-113>116-127>130-139>142-154-155-282100-
WESTERN NORTH TEXAS

CITY           SKY/WX    TMP DP  RH WIND       PRES   REMARKS
WICHITA FALLS  MOSUNNY   90  50  25 VRB5      30.04F
WF-KICKAPOO    SUNNY     90  46  22 W6        30.06F
VERNON         SUNNY     92  32  11 CALM      30.06F
ABILENE        SUNNY     83  47  28 W5        30.11F
ABILENE-DYESS  SUNNY     83  50  31 VRB2      30.09F
CISCO          SUNNY     84  46  26 VRB5      30.10F
BRECKENRIDGE     N/A     87  47  25 CALM      30.08F HAZE
GRAHAM         SUNNY     88  52  29 CALM      30.05F
MINERAL WELLS  SUNNY     86  49  27 CALM      30.04F
STEPHENVILLE   SUNNY     87  42  21 CALM      30.09F
COMANCHE       SUNNY     84  49  29 CALM      30.09F
BROWNWOOD      SUNNY     84  45  24 NW5       30.09F
COLEMAN        SUNNY     85  45  25 CALM      30.10F
$$

TXZ143>147-156>162-174-175-282100-
CENTRAL TEXAS

CITY           SKY/WX    TMP DP  RH WIND       PRES   REMARKS
WACO           SUNNY     89  47  23 NW8       30.03F
WACO-MCGREGOR  SUNNY     86  50  28 NW6       30.05F
HILLSBORO      SUNNY     83  49  30 W5        30.04F
CORSICANA      SUNNY     86  49  27 MISG      30.04F
MEXIA          SUNNY     83  46  26 SW5       30.04F
HEARNE         SUNNY     83  56  38 CALM      30.05F
CAMERON        SUNNY     86  56  35 N3        30.04F
KILLEEN        SUNNY     85  49  29 NE6       30.05F
KILLEEN-SKYLRK SUNNY     85  49  28 VRB3      30.05F
FORT HOOD      SUNNY     84  48  28 W6        30.03F
GATESVILLE     SUNNY     84  48  28 CALM      30.08F
HAMILTON       SUNNY     85  49  27 CALM      30.08F
LAMPASAS       SUNNY     84  50  31 N3        30.07F
$$

TXZ095>097-106>112-122>126-135>138-148>153-164>167-282100-
EAST TEXAS

CITY           SKY/WX    TMP DP  RH WIND       PRES   REMARKS
PARIS          SUNNY     88  54  31 W13G20    30.00F
SULPHUR SPRNGS SUNNY     88  49  25 SW10      30.03F
MOUNT PLEASANT SUNNY     87  50  28 SW12      30.02F
GILMER         SUNNY     85  53  33 W7        30.01F
MINEOLA        SUNNY     86  52  30 W5        30.02F
TYLER          SUNNY     85  49  28 VRB6      30.03F
LONGVIEW       SUNNY     83  53  35 W8        30.01F
MARSHALL       SUNNY     85  49  28 W3        30.03F
ATHENS         SUNNY     82  48  30 SW5       30.02F
PALESTINE      SUNNY     82  53  36 W5        30.05F
JACKSONVILLE   SUNNY     81  52  36 W6        30.06F
HENDERSON      SUNNY     82  55  38 SW7       30.04F
CENTER         CLEAR     85  46  26 SW5       30.03F
NACOGDOCHES    SUNNY     84  52  32 W7        30.02F
LUFKIN         SUNNY     82  56  40 VRB3      30.03F
$$

SUPPLEMENTAL OBSERVATIONS (CENTRAL)

CITY           SKY/WX    TMP DP  RH WIND       PRES   REMARKS
DENISON DAM      N/A     88  54  31 W8          N/A
CADDO GRASSLND   N/A     90  52  27 SW6         N/A
PAT MAYSE LAKE   N/A     84  57  39 S10         N/A
GREENVILLE       N/A     88  52  29 W8          N/A
CEDAR HILL       N/A     90  50  25 W2          N/A
ATHENS           N/A     88  48  25 W3          N/A
LAKE LIMESTONE   N/A     86  52  30 N5          N/A
MCGREGOR         N/A     88  50  27 N2          N/A
TEMPLE           N/A     88  52  29 SW3         N/A
$$

SUPPLEMENTAL OBSERVATIONS (WEST)

CITY           SKY/WX    TMP DP  RH WIND       PRES   REMARKS
MILLERS CREEK    N/A     86  54  32 S5          N/A
POSSUM KINGDOM   N/A     90  48  24 SW3         N/A
LBJ GRASSLAND    N/A     90  57  33 S5          N/A
GRANBURY         N/A     88  48  25 NW3         N/A
COMANCHE         N/A     86  46  25 N3          N/A
HAMBY            N/A     86  46  25 VRB1        N/A
COLORADO BEND    N/A     84  48  28 W2          N/A
$$

SUPPLEMENTAL OBSERVATIONS (EAST)

CITY           SKY/WX    TMP DP  RH WIND       PRES   REMARKS
CLARKSVILLE      N/A     93  50  22 NW1         N/A  HX  90
TEXARKANA        N/A     90  57  33 SW5         N/A
LINDEN           N/A     90  52  27 W3          N/A
CADDO LAKE       N/A     90  54  29 W5          N/A
GILMER           N/A     88  52  29 W5G14       N/A
HENDERSON        N/A     84  54  34 W6          N/A
N SABINE NF      N/A     88  57  35 MISG        N/A
S SABINE NF      N/A     84  61  45 N3          N/A
$$

SUPPLEMENTAL OBSERVATIONS ARE A COLLECTION OF AUTOMATED INSTRUMENTS
THAT ARE MAINTAINED BY A VARIETY OF FEDERAL AND STATE AGENCIES.
CERTAIN ELEMENTS...SUCH AS HUMIDITY VALUES AND SUSTAINED WIND
SPEEDS...MAY BE APPROXIMATED.




USA.gov is the U.S. government's official web portal to all federal, state and local government web resources and services.